www.pogodaiklimat.ru

Погода и климат >> Архив погоды >> Россия >> Кемеровская область >> Кондома


ПОГОДА в Кондоме

  • Прогноз погоды в Кондоме
  • Монитор погоды в Кондоме

АРХИВ ПОГОДЫ в Кондоме

Время (UTC), дата Ветер
(напр.,м/с)
 
Видим.   Явления Облачность Т
(С)
Тd
(С)
f
(%)
Тe
(С)
Тes
(С)
Комфортность P
(гПа)
Po
(гПа)
Тmin
(С)
Tmax
(С)
R
(мм)
R24
(мм)
S
(см)
00 14.03 штиль 0 20 км 1/0
[Ci fib]
-9.6 -10.2 95 -10 -10 1032.4 986.2 -9.7 69
03 14.03 штиль 0 50 км 8/0
[Ac trans Ci fib]
-4.5 -7.7 78 -5 -4 1033.4 988.0 -10.5
06 14.03 ЮВ 1 50 км 8/0
[Ac trans Ci fib]
+9.1 -8.0 29 +9 +12 1029.8 986.7
09 14.03 СЗ 2 50 км 8/0
[Ac As Ci fib]
+10.0 -8.1 27 +9 +10 1028.2 985.3
12 14.03 СВ 1 50 км 8/0
[Ac As Ci fib]
+4.2 -4.3 54 +3 +3 1028.1 984.3 +12.0
15 14.03 штиль 0 20 км 6/0
[Ci fib]
-2.6 -4.6 86 -4 -4 1028.9 984.0
18 14.03 штиль 0 20 км 4/0
[Ci fib]
-4.9 -5.9 93 -6 -6 1027.9 982.7
21 14.03 штиль 0 20 км 4/0
[Ci fib]
-7.3 -7.8 96 -8 -8 1026.9 981.3
00 15.03 штиль 0 20 км 3/0
[Ci fib]
-9.2 -10.0 94 -10 -10 1024.7 978.9 -9.2 69
03 15.03 штиль 0 50 км 1/0
[Ci fib]
-2.6 -6.4 75 -4 +1 1023.3 978.7 -9.6
06 15.03 штиль 0 50 км ясно +14.0 -8.0 21 +14 +24 1019.3 977.3
09 15.03 С 1 50 км ясно +14.8 -10.8 16 +16 +21 1016.4 974.7
12 15.03 С 1 50 км ясно +7.3 -5.2 41 +7 +7 1016.1 973.3 +16.8
15 15.03 штиль 0 20 км ясно -3.5 -6.0 83 -5 -5 1019.3 974.7
18 15.03 штиль 0 20 км ясно -4.8 -5.9 92 -6 -6 1019.5 974.7
21 15.03 штиль 0 20 км ясно -6.8 -7.5 95 -8 -8 1019.9 974.7
00 16.03 штиль 0 20 км 6/0
[Ac trans]
-8.1 -8.9 94 -9 -9 1017.8 972.5 -8.1 64
03 16.03 СЗ 3 50 км 10 баллов -4.9 -6.6 88 -10 -10 1018.1 973.3
06 16.03 СЗ 4 50 км 10/10 600 м
[Cb cap]
+4.3 -3.2 58 +1 +1 1018.0 974.7
09 16.03 З 4 50 км 10 баллов +2.9 -1.8 71 -2 -2 1018.2 974.7
12 16.03 З 2 4000 м слаб. ливневой снег 10/10 600 м
[Cb cap]
-1.1 -2.1 93 -5 -5 1020.2 976.0 +5.3 2
15 16.03 З 1 20 км 4 балла -2.3 -4.6 84 -4 -4 1021.8 977.3
18 16.03 ЮЗ 3 20 км 8/8 1000 м
[Cu med, cong]
-4.1 -6.9 81 -9 -9 1023.6 978.7
21 16.03 ЮЗ 2 20 км 10 баллов -4.9 -7.6 81 -9 -9 1023.7 978.7
00 17.03 Ю 3 20 км 8/8 600 м
[Cb cap]
-6.7 -8.7 86 -12 -12 1022.6 977.3 -6.7 0.5 68
03 17.03 Ю 2 50 км 8/8 600 м
[Cb cap]
-5.0 -8.2 78 -9 -8 1023.8 978.7 -8.5
06 17.03 З 3 10 км слаб. ливневой снег 10/10 600 м
[Cb cap]
-4.1 -7.9 75 -9 -9 1023.6 978.7
09 17.03 СВ 3 50 км {ливн. осадки} 10/10 600 м
[Cb cap]
-3.2 -7.3 73 -8 -8 1022.0 977.3
12 17.03 ЮЗ 2 10 км слаб. ливневой снег 10/10 600 м
[Cb cap]
-5.8 -7.5 88 -10 -10 1023.9 978.7 -2.8 1
15 17.03 ЮЗ 1 10 км слаб. ливневой снег 10 баллов -7.3 -8.9 88 -10 -10 1026.9 981.3
18 17.03 ЮЗ 1 20 км 4 балла -9.0 -10.1 92 -11 -11 1028.6 982.7
21 17.03 штиль 0 20 км 7 баллов -11.9 -13.3 89 -12 -12 1030.5 984.0
00 18.03 штиль 0 20 км 8/8 600 м
[Cb cap]
-14.8 -16.6 86 -15 -15 1032.8 985.6 -15.4 2 71
03 18.03 штиль 0 50 км 4 балла -6.8 -10.6 74 -7 -4 1033.8 988.0
06 18.03 СЗ 2 50 км 4 балла -3.0 -11.2 53 -6 -2 1034.5 989.3
09 18.03 С 2 50 км 7 баллов -3.3 -12.5 49 -7 -5 1034.6 989.3
12 18.03 СВ 2 50 км {ливн. осадки} 6/6 600 м
[Cb cap]
-4.3 -12.5 53 -8 -8 1034.3 988.9 -2.0 0.2
15 18.03 штиль 0 20 км 6 баллов -11.2 -12.9 87 -11 -11 1037.4 990.7
18 18.03 штиль 0 20 км 4 балла -15.6 -16.7 91 -16 -16 1038.2 990.7
21 18.03 штиль 0 20 км 4 балла -18.7 -20.6 85 -19 -19 1037.4 989.3
00 19.03 штиль 0 20 км 3/0
[Ci fib]
-20.6 -22.7 83 -21 -21 1036.9 988.5 -20.6 71
03 19.03 штиль 0 50 км 2 балла -13.4 -17.4 72 -13 -9 1036.4 989.3 -21.1
06 19.03 штиль 0 50 км 2 балла -0.6 -12.8 39 -1 +8 1032.7 988.0
09 19.03 СЗ 2 50 км 6 баллов -0.3 -13.5 36 -3 -1 1029.9 985.3
12 19.03 С 2 50 км 10/4 600 м
[Cb cap Ac As]
-1.8 -14.2 38 -5 -5 1029.6 984.8 +2.1
15 19.03 СЗ 2 20 км 10 баллов -2.7 -11.9 49 -6 -6 1031.7 986.7
18 19.03 штиль 0 20 км 7 баллов -6.6 -10.0 77 -7 -7 1033.8 988.0
21 19.03 штиль 0 20 км 4 балла -10.0 -11.6 88 -10 -10 1034.4 988.0
00 20.03 штиль 0 20 км 4/0
[Ac trans]
-12.6 -13.7 91 -13 -13 1035.6 988.7 -12.7 71
03 20.03 штиль 0 50 км 7 баллов -5.4 -10.7 66 -6 -4 1036.4 990.7
06 20.03 С 1 50 км 7 баллов +0.9 -11.2 40 0 +3 1033.9 989.3
09 20.03 СВ 4 50 км 6 баллов +0.7 -9.9 45 -4 -2 1033.9 989.3
12 20.03 СВ 2 50 км ясно -1.1 -10.1 50 -4 -4 1032.9 988.0 +2.3
15 20.03 штиль 0 20 км ясно -6.0 -9.5 76 -7 -7 1035.0 989.3
18 20.03 штиль 0 20 км ясно -10.3 -11.5 91 -11 -11 1035.8 989.3

 

Местоположение метеостанции Кондома (Кемеровская область, Россия): широта 52.82 долгота 87.27 высота над уровнем моря 355 м.

В архиве по умолчанию представлена погода в Кондоме за последнюю неделю. Архивные данные за месяц целиком и за предыдущие месяцы, начиная с января 2011 года, Вы можете получить, выбрав интересующий диапазон дат из раскрывающегося списка и нажав кнопку "Ввод!".


*Определитесь, кто Вы:
робот инопланетянин человек

Внимание! Время в таблицах - всемирное. Для получения местного времени необходимо прибавить поправку, которая равна 7 ч.

Смотрите также архив погоды в соседних городах и на ближайших метеорологических станциях:

Погода в Таштаголе (Кемеровская область, Россия) (41 км)
Погода в Кузедеево (Кемеровская область, Россия) (57 км)
Погода в Турочаке (Алтай, Россия) (64 км)
Погода в Усть-Кабырзе (Кемеровская область, Россия) (79 км)
Погода в Чое (Алтай, Россия) (104 км)
Погода в Новокузнецке АМС (Кемеровская область, Россия) (106 км)
Погода в Междуреченске (Кемеровская область, Россия) (108 км)
Погода в Целинном (Алтайский край, Россия) (114 км)
Погода в Тогуле (Алтайский край, Россия) (115 км)
Погода в Яйлю (Алтай, Россия) (119 км)

Пояснения к столбцам:

Ветер - указаны скорость ветра в м/с - средняя за 10 мин, порывы в срок и между сроками (в фигурных скобках) и направление, откуда дует ветер: С - северный, СВ - северо-восточный, В - восточный, ЮВ - юго-восточный, Ю - южный, ЮЗ - юго-западный, З - западный, СЗ - северо-западный.
Видимость - горизонтальная дальность видимости в метрах или километрах. При видимости от 1 до 10 км при отсутствии осадков обычно наблюдается дымка, при ухудшении видимости до 1 км и менее - туман. В сухую погоду видимость может ухудшаться дымом, пылью или мглою.
Явления - указаны атмосферные явления, наблюдавшиеся в срок или в последний час перед сроком; фигурными скобками обозначены явления, наблюдавшиеся между сроками (за 1-3 часа до срока); квадратными скобками обозначены град или гололедные отложения с указанием их диаметра в мм.
Облачность - указаны через наклонную черту общая и нижняя облачность в баллах и высота нижней границы облаков в метрах; квадратными скобками обозначены формы облаков: Ci - перистые, Cs - перисто-слоистые, Cc - перисто-кучевые, Ac - высококучевые, As - высокослоистые, Sc - слоисто-кучевые, Ns - слоисто-дождевые, Cu - кучевые, Cb - кучево-дождевые. Подробнее классификацию облаков см. в Атласе облаков (PDF).
T - Температура воздуха - температура, измеренная на высоте 2 м над землей.
Td - Температура точки росы - температура, при понижении до которой содержащийся в воздухе водяной пар достигнет насыщения.
f - Относительная влажность воздуха - влажноcть воздуха, измеренная на высоте 2 м над землей.
Te - Эффективная температура - температура, которую ощущает одетый по сезону человек в тени. Характеристика душности погоды. При расчете учитывается влияние влажности воздуха и скорости ветра на теплоощущения человека.
Tes - Эффективная температура на солнце - температура, которую ощущает человек, с поправкой на солнечный нагрев. Характеристика знойности погоды. Зависит от высоты солнца над горизонтом, облачности и скорости ветра. Ночью, в пасмурную погоду, а также при ветре 12 м/с и более поправка равна нулю.
P - Атмосферное давление - приведенное к уровню моря атмосферное давление.
Po - Атмосферное давление - измеренное на уровне метеостанции атмосферное давление.
Tmin - Минимальная температура - минимум температуры воздуха на высоте 2 м над землей.
Tmax - Максимальная температура - максимум температуры воздуха на высоте 2 м над землей.
R - Количество осадков - Количество выпавших осадков за период времени, мм. При наведении курсора мыши на число - период времени, за который выпало указанное количество осадков.
R24 - Количество осадков - Количество выпавших осадков за 24 часа, мм.
S - Снежный покров - Высота снежного покрова, см. При наведении курсора мыши на число - состояние снежного покрова и степень покрытия местности в баллах.